Voltar ao catálogo

THORAD DELTA 1 DEB

AtivoLEO
NORAD 8594·DEBRIS·🇺🇸 United States

Lançado Nov 15, 1974 de Vandenberg Space Force Base

Loading…

Próximas Passagens (próximas 24 horas)

TLE

AtualizadoSource: Space-Track

Época: Sep 14, 2026, 04:38 UTC

1 08594U 74089DH  26257.19338168  .00000024  00000-0  33952-3 0  9996
2 08594 101.7729 231.3709 0128374 251.6217 177.8561 12.73209555404876

Acompanhe THORAD DELTA 1 DEB em tempo real com AllMySat

Download on the App Store